This demonstration page uses our WeatherBlox Daily Observations layout. Learn more.

Left ArrowRight Arrow

39.92423, -83.80882

Hourly Observations for July 10, 2019

Temp ( °F °C ) Dew Point ( °F °C ) Humidity (%) Winds ( mph kmh ) Pressure ( in mb ) Visibility ( mi km ) Precip ( " mm )
12:56 am 00:56 Clear 70 21.1 69 20.6 97 97 ESE 3 6 30.01 1016 10 16.0934 N/A
1:56 am 01:56 Clear 70 21.1 69 20.6 97 97 N N/A 30.01 1016 10 16.0934 N/A
2:56 am 02:56 Clear 69 20.6 69 20.6 100 100 N N/A 30 1016 10 16.0934 N/A
3:56 am 03:56 Clear 67 19.4 67 19.4 100 100 E 3 6 30 1016 10 16.0934 N/A
4:56 am 04:56 Clear 68 20 68 20 100 100 N N/A 30 1016 10 16.0934 N/A
5:56 am 05:56 Clear 68 20 68 20 100 100 N N/A 30.01 1016 10 16.0934 N/A
6:56 am 06:56 Sunny 68 20 68 20 100 100 ESE 3 6 30.01 1016 10 16.0934 N/A
7:56 am 07:56 Sunny 73 22.8 71 21.7 94 94 N N/A 30.01 1016 9 14.48406 N/A
8:56 am 08:56 Sunny 78 25.6 72 22.2 82 82 SSW 5 7 30.02 1017 10 16.0934 N/A
9:56 am 09:56 Sunny 82 27.8 73 22.8 74 74 S 3 6 30.02 1017 10 16.0934 N/A
10:56 am 10:56 Sunny 85 29.4 71 21.7 63 63 WSW 7 11 30.01 1016 10 16.0934 N/A
11:56 am 11:56 Sunny 86 30 71 21.7 61 61 SSW 7 11 30.01 1016 10 16.0934 N/A
12:56 pm 12:56 Cloudy 87 30.6 71 21.7 59 59 SW 7 11 30.01 1016 10 16.0934 N/A
1:56 pm 13:56 Cloudy 87 30.6 71 21.7 59 59 SSW 8 13 29.99 1016 10 16.0934 N/A
2:56 pm 14:56 Cloudy 87 30.6 71 21.7 59 59 SW 12 19 29.98 1015 10 16.0934 N/A
3:56 pm 15:56 Mostly Cloudy 87 30.6 71 21.7 59 59 WSW 12 19 29.97 1015 10 16.0934 N/A
4:56 pm 16:56 Sunny 87 30.6 72 22.2 61 61 SSW 9 15 29.95 1014 10 16.0934 N/A
5:56 pm 17:56 Sunny 87 30.6 73 22.8 63 63 SW 8 13 29.94 1014 10 16.0934 N/A
6:56 pm 18:56 Sunny 87 30.6 72 22.2 61 61 S 6 9 29.93 1014 10 16.0934 N/A
7:56 pm 19:56 Sunny 86 30 73 22.8 65 65 SSW 7 11 29.92 1013 10 16.0934 N/A
8:56 pm 20:56 Sunny 82 27.8 72 22.2 72 72 S 3 6 29.91 1013 10 16.0934 N/A
9:56 pm 21:56 Clear 80 26.7 73 22.8 79 79 SW 3 6 29.94 1014 10 16.0934 N/A
10:56 pm 22:56 Mostly Clear 79 26.1 73 22.8 82 82 SW 3 6 29.93 1014 10 16.0934 N/A
11:56 pm 23:56 Mostly Clear 77 25 68 20 74 74 NW 13 20 29.93 1014 10 16.0934 N/A

Powered by AerisWeather